Location: Larrial
(48.2758°N, 4.5331°W)
Time: 01:23:10
(UTC+00:00)

XW-2F - Pass Details

Date: 06 December 2021
Orbit: 495 x 515 km, 97.5° (Epoch: 16 January)

Event Time Altitude Azimuth Distance (km) Brightness Sun altitude
Rises 06:29:00 0° 15° (NNE) 2,652 ? -13.5°
Reaches altitude 10° 06:31:08 10° 18° (NNE) 1,759 ? -13.1°
Maximum altitude 06:34:54 68° 101° (E) 563 ? -12.5°
Drops below altitude 10° 06:38:39 10° 185° (S) 1,737 ? -12.0°
Sets 06:40:44 0° 188° (S) 2,616 ? -11.6°
